Regional Weather Roundup
Issued by NWS Newport/Morehead, NC

Current Version | Previous Version | Text Only | Print | Product List | Glossary On
Versions: 1 2 3 4 5 6 7 8 9 10 11 12 13 14 15 16 17 18 19 20 21 22 23 24 25 26 27 28 29 30 31 32 33 34 35 36 37 38 39 40 41 42 43 44 45 46 47 48 49 50
000 ASUS42 KMHX 221614 RWRMHX WEATHER ROUNDUP FOR EASTERN NORTH CAROLINA NATIONAL WEATHER SERVICE NEWPORT/MOREHEAD CITY NC 1200 PM EDT SUN OCT 22 2017 NOTE: "FAIR" INDICATES FEW OR NO CLOUDS BELOW 12,000 FEET WITH NO SIGNIFICANT WEATHER AND/OR OBSTRUCTIONS TO VISIBILITY NCZ015>017-031-032-045>047-102-103-221700- NORTH COAST CITY SKY/WX TMP DP RH WIND PRES REMARKS EDENTON MOSUNNY 75 59 56 CALM 30.37F ELIZABETH CITY SUNNY 76 64 66 E8 30.37F KITTY HAWK SUNNY 73 63 69 E6 30.36F MANTEO MOSUNNY N/A N/A N/A E9 30.37F $$ NCZ045>047-081-094-103-104-221700- CENTRAL COAST CITY SKY/WX TMP DP RH WIND PRES REMARKS FRISCO MOSUNNY 79 62 56 E7 30.35F $$ NCZ095-097-098-100-101-221700- SOUTHERN COAST CITY SKY/WX TMP DP RH WIND PRES REMARKS BEAUFORT SUNNY 79 65 62 NE8 30.34F CEDAR ISLAND NOT AVBL JACKSONVILLE SUNNY 77 61 57 NE7 30.34F PINEY ISLAND N/A N/A N/A N/A NE10 30.35F WILMINGTON SUNNY 78 61 55 SE12 30.34S $$ NCZ011>013-027>030-043-044-078>080-089-090>093-098-221700- COASTAL PLAIN CITY SKY/WX TMP DP RH WIND PRES REMARKS AHOSKIE SUNNY 71 58 62 CALM 30.37F CLINTON SUNNY 77 62 60 CALM 30.36S ELIZABETHTOWN NOT AVBL GOLDSBORO SUNNY 76 58 52 E6 30.34F HAZE GREENVILLE SUNNY 73 59 60 SE7 30.37S HAVELOCK SUNNY 78 65 63 NE8 30.36F KENANSVILLE SUNNY 77 57 50 SE6 30.36S KINSTON SUNNY 77 57 50 SE3 30.36F NEW BERN MOSUNNY 77 59 53 VRB5 30.36F RICHLANDS MOSUNNY 77 58 51 NE8 30.35F ROCKY MOUNT SUNNY 73 57 57 E6 30.37F WASHINGTON SUNNY 74 62 66 E7 30.37S WHITEVILLE SUNNY 75 60 59 E9 30.34S $$ AMZ130-135-150-152-154-156-158-170-250-252-270-ANZ085-086-088-633-658-670-221700- MARINE OBSERVATIONS STATION/POSITION TIME TEMP WIND PRES WAVE SWELL AIR SEA DIR/SP/G HT/PER HT/PER (UTC) (F) (DEG/KT/KT) (MB) (FT/S) (FT/S) CHESAPEAKE LIGHT NOT AVBL 64 E VA BEACH 1550 69 69 60/ 8/ 8 1029.0 3/ 8 2/ 8 DUCK 1548 72 70 80/ 10/ 11 1028.1 2 E DUCK 1530 70 N/A 2/ 8 OREGON INLET 1536 72 70 60/ 9/ 11 1028.1 13E OREGON INLT 1518 73 N/A 3/ 8 2/ 8 HATTERAS CG 1548 76 71 60/ 4/ 7 1027.8 DIAMOND BUOY 1550 76 81 70/ 10/ 12 1027.6 3/ 8 3/ 8 CAPE LOOKOUT 1600 76 150/ 3/ 4 1026.9 BEAUFORT LAB 1548 76 72 80/ 7/ 10 1027.5 30 SE NEW RVR IN 1508 74 60/ 12/ 16 1027.2 30 SE NEW RVR IN NOT AVBL 27 SE WRIGHTSVLE 1508 76 76 80/ 8/ 14 1027.2 5 SE WRIGHTSVLE 1508 74 74 80/ 12/ 17 1027.1 225 S CAPE HAT 1450 77 80 90/ 12/ 16 1026.2 4/ 8 3/ 8 41 SE CHARLESTON 1550 78 79 100/ 17/ 21 1024.4 5/ 6 $$

USA.gov is the U.S. government's official web portal to all federal, state and local government web resources and services.